Time,TemperatureF,DewpointF,PressureIn,WindDirection,WindDirectionDegrees,WindSpeedMPH,WindSpeedGustMPH,Humidity,HourlyPrecipIn,Conditions,Clouds,dailyrainin,SoftwareType,DateUTC
2013-08-07 00:02:00,73.0,73.0,-100.00,SSW,200,0.0,0.0,99,-99.99,,,-99.99,,2013-08-07 05:02:00,
2013-08-07 00:11:00,73.0,73.0,-100.00,South,185,0.0,0.0,99,-99.99,,,-99.99,,2013-08-07 05:11:00,
2013-08-07 00:22:00,73.0,73.0,-100.00,South,185,0.0,0.0,99,-99.99,,,-99.99,,2013-08-07 05:22:00,
2013-08-07 00:43:00,74.0,74.0,-100.00,SSW,195,0.0,0.0,99,-99.99,,,-99.99,,2013-08-07 05:43:00,
2013-08-07 00:52:00,74.0,74.0,-100.00,SSW,195,0.0,0.0,99,-99.99,,,-99.99,,2013-08-07 05:52:00,
2013-08-07 01:11:00,74.0,74.0,-100.00,SW,235,0.0,0.0,99,-99.99,,,-99.99,,2013-08-07 06:11:00,
2013-08-07 01:22:00,74.0,74.0,-100.00,SW,235,0.0,0.0,99,-99.99,,,-99.99,,2013-08-07 06:22:00,
2013-08-07 01:43:00,74.0,74.0,-100.00,SW,220,0.0,0.0,99,-99.99,,,-99.99,,2013-08-07 06:43:00,
2013-08-07 01:52:00,74.0,74.0,-100.00,SW,220,0.0,0.0,99,-99.99,,,-99.99,,2013-08-07 06:52:00,
2013-08-07 02:12:00,74.0,74.0,-100.00,SSE,165,0.0,0.0,99,-99.99,,,-99.99,,2013-08-07 07:12:00,
2013-08-07 02:22:00,74.0,74.0,-100.00,SSE,165,0.0,0.0,99,-99.99,,,-99.99,,2013-08-07 07:22:00,
2013-08-07 02:43:00,74.0,73.0,-100.00,South,190,0.0,0.0,99,-99.99,,,-99.99,,2013-08-07 07:43:00,
2013-08-07 02:52:00,74.0,73.0,-100.00,South,190,0.0,0.0,99,-99.99,,,-99.99,,2013-08-07 07:52:00,
2013-08-07 03:01:00,73.0,73.0,-100.00,SSE,165,0.0,0.0,99,-99.99,,,-99.99,,2013-08-07 08:01:00,
2013-08-07 03:11:00,74.0,73.0,-100.00,SE,125,0.0,0.0,99,-99.99,,,-99.99,,2013-08-07 08:11:00,
2013-08-07 03:22:00,74.0,73.0,-100.00,SE,125,0.0,0.0,99,-99.99,,,-99.99,,2013-08-07 08:22:00,
2013-08-07 03:44:00,72.0,72.0,-100.00,SE,125,0.0,0.0,99,-99.99,,,-99.99,,2013-08-07 08:44:00,
2013-08-07 03:53:00,72.0,72.0,-100.00,SE,125,0.0,0.0,99,-99.99,,,-99.99,,2013-08-07 08:53:00,
2013-08-07 04:11:00,71.0,71.0,-100.00,ENE,75,0.0,0.0,99,-99.99,,,-99.99,,2013-08-07 09:11:00,
2013-08-07 04:22:00,71.0,71.0,-100.00,ENE,75,0.0,0.0,99,-99.99,,,-99.99,,2013-08-07 09:22:00,
2013-08-07 04:32:00,71.0,71.0,-100.00,ENE,65,0.0,0.0,99,-99.99,,,-99.99,,2013-08-07 09:32:00,
2013-08-07 04:43:00,71.0,70.0,-100.00,NE,50,0.0,0.0,99,-99.99,,,-99.99,,2013-08-07 09:43:00,
2013-08-07 04:54:00,71.0,70.0,-100.00,NE,50,0.0,0.0,99,-99.99,,,-99.99,,2013-08-07 09:54:00,
2013-08-07 05:01:00,71.0,70.0,-100.00,ENE,75,0.0,0.0,99,-99.99,,,-99.99,,2013-08-07 10:01:00,
2013-08-07 05:11:00,71.0,70.0,-100.00,NNW,340,0.0,0.0,99,-99.99,,,-99.99,,2013-08-07 10:11:00,
2013-08-07 05:22:00,71.0,70.0,-100.00,NNW,340,0.0,0.0,99,-99.99,,,-99.99,,2013-08-07 10:22:00,
2013-08-07 05:32:00,71.0,71.0,-100.00,East,90,0.0,0.0,99,-99.99,,,-99.99,,2013-08-07 10:32:00,
2013-08-07 05:43:00,71.0,71.0,-100.00,East,90,0.0,0.0,99,-99.99,,,-99.99,,2013-08-07 10:43:00,
2013-08-07 05:52:00,71.0,71.0,-100.00,East,90,0.0,0.0,99,-99.99,,,-99.99,,2013-08-07 10:52:00,
2013-08-07 06:11:00,71.0,70.0,-100.00,NNE,30,0.0,0.0,99,-99.99,,,-99.99,,2013-08-07 11:11:00,
2013-08-07 06:22:00,71.0,70.0,-100.00,NNE,30,0.0,0.0,99,-99.99,,,-99.99,,2013-08-07 11:22:00,
2013-08-07 06:43:00,70.0,70.0,-100.00,WNW,285,0.0,0.0,99,-99.99,,,-99.99,,2013-08-07 11:43:00,
2013-08-07 06:53:00,70.0,70.0,-100.00,WNW,285,0.0,0.0,99,-99.99,,,-99.99,,2013-08-07 11:53:00,
2013-08-07 07:02:00,71.0,70.0,-100.00,SSE,160,0.0,0.0,99,-99.99,,,-99.99,,2013-08-07 12:02:00,
2013-08-07 07:11:00,71.0,71.0,-100.00,SSW,205,0.0,0.0,99,-99.99,,,-99.99,,2013-08-07 12:11:00,
2013-08-07 07:22:00,71.0,71.0,-100.00,SSW,205,0.0,0.0,99,-99.99,,,-99.99,,2013-08-07 12:22:00,
2013-08-07 07:43:00,72.0,71.0,-100.00,ESE,115,0.0,0.0,99,-99.99,,,-99.99,,2013-08-07 12:43:00,
2013-08-07 07:52:00,72.0,71.0,-100.00,ESE,115,0.0,0.0,99,-99.99,,,-99.99,,2013-08-07 12:52:00,
2013-08-07 08:11:00,72.0,72.0,-100.00,South,180,0.0,0.0,99,-99.99,,,-99.99,,2013-08-07 13:11:00,
2013-08-07 08:22:00,72.0,72.0,-100.00,South,180,0.0,0.0,99,-99.99,,,-99.99,,2013-08-07 13:22:00,
2013-08-07 08:32:00,73.0,73.0,-100.00,South,190,0.0,0.0,99,-99.99,,,-99.99,,2013-08-07 13:32:00,
2013-08-07 08:44:00,74.0,74.0,-100.00,South,185,0.0,0.0,99,-99.99,,,-99.99,,2013-08-07 13:44:00,
2013-08-07 08:53:00,74.0,74.0,-100.00,South,185,0.0,0.0,99,-99.99,,,-99.99,,2013-08-07 13:53:00,
2013-08-07 09:22:00,76.0,76.0,-100.00,South,190,0.0,0.0,99,-99.99,,,-99.99,,2013-08-07 14:22:00,
2013-08-07 09:33:00,76.0,76.0,-100.00,WSW,240,0.0,0.0,99,-99.99,,,-99.99,,2013-08-07 14:33:00,
2013-08-07 09:43:00,77.0,76.0,-100.00,SW,215,0.0,0.0,99,-99.99,,,-99.99,,2013-08-07 14:43:00,
2013-08-07 09:52:00,77.0,76.0,-100.00,SW,215,0.0,0.0,99,-99.99,,,-99.99,,2013-08-07 14:52:00,
2013-08-07 10:22:00,79.0,78.0,-100.00,WSW,240,0.0,0.0,96,-99.99,,,-99.99,,2013-08-07 15:22:00,
2013-08-07 10:43:00,79.0,78.0,-100.00,West,270,0.0,0.0,96,-99.99,,,-99.99,,2013-08-07 15:43:00,
2013-08-07 10:53:00,79.0,78.0,-100.00,West,270,0.0,0.0,96,-99.99,,,-99.99,,2013-08-07 15:53:00,
2013-08-07 11:22:00,80.0,78.0,-100.00,WNW,295,0.0,0.0,96,-99.99,,,-99.99,,2013-08-07 16:22:00,
2013-08-07 11:33:00,80.0,79.0,-100.00,West,275,0.0,0.0,96,-99.99,,,-99.99,,2013-08-07 16:33:00,
2013-08-07 11:43:00,81.0,79.0,-100.00,West,280,0.0,0.0,94,-99.99,,,-99.99,,2013-08-07 16:43:00,
2013-08-07 11:53:00,81.0,79.0,-100.00,West,280,0.0,0.0,94,-99.99,,,-99.99,,2013-08-07 16:53:00,
2013-08-07 12:01:00,81.0,79.0,-100.00,West,265,0.0,0.0,93,-99.99,,,-99.99,,2013-08-07 17:01:00,
2013-08-07 12:22:00,81.0,79.0,-100.00,West,275,0.0,0.0,93,-99.99,,,-99.99,,2013-08-07 17:22:00,
2013-08-07 12:43:00,84.0,79.0,-100.00,West,270,0.0,0.0,87,-99.99,,,-99.99,,2013-08-07 17:43:00,
2013-08-07 12:52:00,84.0,79.0,-100.00,West,270,0.0,0.0,87,-99.99,,,-99.99,,2013-08-07 17:52:00,
2013-08-07 13:32:00,89.0,79.0,-100.00,North,5,0.0,0.0,73,-99.99,,,-99.99,,2013-08-07 18:32:00,
2013-08-07 13:43:00,88.0,79.0,-100.00,North,0,0.0,0.0,75,-99.99,,,-99.99,,2013-08-07 18:43:00,
2013-08-07 13:52:00,88.0,79.0,-100.00,North,0,0.0,0.0,75,-99.99,,,-99.99,,2013-08-07 18:52:00,
2013-08-07 14:22:00,83.0,74.0,-100.00,North,0,0.0,0.0,76,-99.99,,,-99.99,,2013-08-07 19:22:00,
2013-08-07 14:44:00,77.0,77.0,-100.00,North,5,0.0,0.0,99,-99.99,,,-99.99,,2013-08-07 19:44:00,
2013-08-07 14:53:00,77.0,77.0,-100.00,North,5,0.0,0.0,99,-99.99,,,-99.99,,2013-08-07 19:53:00,
2013-08-07 15:02:00,80.0,79.0,-100.00,East,90,0.0,0.0,99,-99.99,,,-99.99,,2013-08-07 20:02:00,
2013-08-07 15:22:00,83.0,81.0,-100.00,North,0,0.0,0.0,93,-99.99,,,-99.99,,2013-08-07 20:22:00,
2013-08-07 15:32:00,86.0,81.0,-100.00,NE,40,0.0,0.0,85,-99.99,,,-99.99,,2013-08-07 20:32:00,
2013-08-07 15:43:00,87.0,80.0,-100.00,North,0,0.0,0.0,80,-99.99,,,-99.99,,2013-08-07 20:43:00,
2013-08-07 15:52:00,87.0,80.0,-100.00,North,0,0.0,0.0,80,-99.99,,,-99.99,,2013-08-07 20:52:00,
2013-08-07 16:01:00,89.0,79.0,-100.00,North,0,0.0,0.0,73,-99.99,,,-99.99,,2013-08-07 21:01:00,
2013-08-07 16:11:00,87.0,77.0,-100.00,North,0,0.0,0.0,72,-99.99,,,-99.99,,2013-08-07 21:11:00,
2013-08-07 16:22:00,87.0,77.0,-100.00,North,0,0.0,0.0,72,-99.99,,,-99.99,,2013-08-07 21:22:00,
2013-08-07 16:52:00,86.0,77.0,-100.00,NNE,15,0.0,0.0,76,-99.99,,,-99.99,,2013-08-07 21:52:00,
2013-08-07 17:01:00,87.0,77.0,-100.00,North,0,0.0,0.0,73,-99.99,,,-99.99,,2013-08-07 22:01:00,
2013-08-07 17:22:00,86.0,75.0,-100.00,North,0,0.0,0.0,69,-99.99,,,-99.99,,2013-08-07 22:22:00,
2013-08-07 17:32:00,85.0,74.0,-100.00,NNE,15,0.0,0.0,69,-99.99,,,-99.99,,2013-08-07 22:32:00,
2013-08-07 17:43:00,85.0,75.0,-100.00,North,0,0.0,0.0,71,-99.99,,,-99.99,,2013-08-07 22:43:00,
2013-08-07 17:52:00,85.0,75.0,-100.00,North,0,0.0,0.0,71,-99.99,,,-99.99,,2013-08-07 22:52:00,
2013-08-07 18:11:00,85.0,73.0,-100.00,North,0,0.0,0.0,69,-99.99,,,-99.99,,2013-08-07 23:11:00,
2013-08-07 18:22:00,85.0,73.0,-100.00,North,0,0.0,0.0,69,-99.99,,,-99.99,,2013-08-07 23:22:00,
2013-08-07 18:32:00,84.0,73.0,-100.00,North,0,0.0,0.0,69,-99.99,,,-99.99,,2013-08-07 23:32:00,
2013-08-07 18:43:00,84.0,73.0,-100.00,North,5,0.0,0.0,69,-99.99,,,-99.99,,2013-08-07 23:43:00,
2013-08-07 18:52:00,84.0,73.0,-100.00,North,5,0.0,0.0,69,-99.99,,,-99.99,,2013-08-07 23:52:00,
2013-08-07 19:01:00,84.0,72.0,-100.00,North,0,0.0,0.0,69,-99.99,,,-99.99,,2013-08-08 00:01:00,
2013-08-07 19:22:00,83.0,72.0,-100.00,North,355,0.0,0.0,70,-99.99,,,-99.99,,2013-08-08 00:22:00,
2013-08-07 19:42:00,81.0,71.0,-100.00,North,0,0.0,0.0,73,-99.99,,,-99.99,,2013-08-08 00:42:00,
2013-08-07 19:52:00,81.0,71.0,-100.00,North,0,0.0,0.0,73,-99.99,,,-99.99,,2013-08-08 00:52:00,
2013-08-07 20:11:00,79.0,71.0,-100.00,North,350,0.0,0.0,78,-99.99,,,-99.99,,2013-08-08 01:11:00,
2013-08-07 20:22:00,79.0,71.0,-100.00,North,350,0.0,0.0,78,-99.99,,,-99.99,,2013-08-08 01:22:00,
2013-08-07 20:32:00,78.0,71.0,-100.00,North,355,0.0,0.0,80,-99.99,,,-99.99,,2013-08-08 01:32:00,
2013-08-07 20:43:00,77.0,71.0,-100.00,North,350,0.0,0.0,82,-99.99,,,-99.99,,2013-08-08 01:43:00,
2013-08-07 20:52:00,77.0,71.0,-100.00,North,350,0.0,0.0,82,-99.99,,,-99.99,,2013-08-08 01:52:00,
2013-08-07 21:11:00,75.0,71.0,-100.00,North,0,0.0,0.0,88,-99.99,,,-99.99,,2013-08-08 02:11:00,
2013-08-07 21:22:00,75.0,71.0,-100.00,North,0,0.0,0.0,88,-99.99,,,-99.99,,2013-08-08 02:22:00,
2013-08-07 21:32:00,74.0,71.0,-100.00,North,350,0.0,0.0,90,-99.99,,,-99.99,,2013-08-08 02:32:00,
2013-08-07 21:42:00,73.0,71.0,-100.00,NNW,335,0.0,0.0,93,-99.99,,,-99.99,,2013-08-08 02:42:00,
2013-08-07 21:52:00,73.0,71.0,-100.00,NNW,335,0.0,0.0,93,-99.99,,,-99.99,,2013-08-08 02:52:00,
2013-08-07 22:12:00,72.0,71.0,-100.00,North,355,0.0,0.0,98,-99.99,,,-99.99,,2013-08-08 03:12:00,
2013-08-07 22:22:00,72.0,71.0,-100.00,North,355,0.0,0.0,98,-99.99,,,-99.99,,2013-08-08 03:22:00,
2013-08-07 23:11:00,69.0,69.0,-100.00,North,355,0.0,0.0,99,-99.99,,,-99.99,,2013-08-08 04:11:00,
2013-08-07 23:22:00,69.0,69.0,-100.00,North,355,0.0,0.0,99,-99.99,,,-99.99,,2013-08-08 04:22:00,
2013-08-07 23:43:00,69.0,69.0,-100.00,NE,45,0.0,0.0,99,-99.99,,,-99.99,,2013-08-08 04:43:00,
2013-08-07 23:53:00,69.0,69.0,-100.00,NE,45,0.0,0.0,99,-99.99,,,-99.99,,2013-08-08 04:53:00,